Lowell, ID

4:09 AM MDT on July 28, 2017 (GMT -0600)
Lowell

Weather History for KP69 - March, 2014

Change the Weather History Date:

Friday, March 21, 2014

  Actual Average Record
Temperature  
Mean Temperature 41 °F -  
Max Temperature 52 °F 54 °F 73 °F (2004)
Min Temperature 30 °F 33 °F 28 °F (2001)
Degree Days  
Heating Degree Days 24    
Moisture  
Dew Point 27 °F    
Average Humidity 71    
Maximum Humidity 96    
Minimum Humidity 25    
Precipitation  
Precipitation 0.00 in - - ()
Sea Level Pressure  
Sea Level Pressure 30.32 in    
Wind  
Wind Speed 2 mph (NNW)    
Max Wind Speed 5 mph    
Max Gust Speed -    
Averages and records for this station are not official NWS values.
T = Trace of Precipitation, MM = Missing Value Source: NWS Daily Summary

Daily Weather History Graph

Daily Weather History Graph

Search for Another Location

Airport or City:

Trip Planner

Search our weather history database for the weather conditions in past years. The results will help you decide how hot, cold, wet, or windy it might be!

Date:

Astronomy

Mar. 21, 2014 Rise Set
Actual Time 7:43 AM MDT 7:56 PM MDT
Civil Twilight 7:13 AM MDT 8:26 PM MDT
Nautical Twilight 6:38 AM MDT 9:01 PM MDT
Astronomical Twilight 6:02 AM MDT 9:37 PM MDT
Moon 12:34 AM MDT (3/21) 10:23 AM MDT (3/21)
Length of Visible Light 13h 12m
Length of Day
12h 13m
Waning Gibbous, 75% of the Moon is Illuminated
Mar 21
Waning Gibbous
Mar 23
Last Quarter
Mar 30
New
Apr 7
First Quarter
Apr 15
Full

Hourly Weather History & Observations

Time (MDT) Temp. Windchill Dew Point Humidity Pressure Visibility Wind Dir Wind Speed Gust Speed Precip Events Conditions
12:52 AM 30.9 °F - 28.9 °F 92% 30.38 in - Calm Calm - N/A   Unknown
1:52 AM 30.0 °F 26.5 °F 28.0 °F 92% 30.39 in - NW 3.5 mph - N/A   Unknown
2:52 AM 30.0 °F 26.5 °F 28.9 °F 96% 30.38 in - NNW 3.5 mph - N/A   Unknown
3:52 AM 30.9 °F - 28.9 °F 92% 30.39 in - Calm Calm - N/A   Unknown
4:52 AM 30.9 °F 26.2 °F 28.9 °F 92% 30.39 in - NNW 4.6 mph - N/A   Unknown
5:52 AM 30.9 °F - 28.9 °F 92% 30.38 in - Calm Calm - N/A   Unknown
6:52 AM 30.0 °F - 28.9 °F 96% 30.39 in - Calm Calm - N/A   Unknown
7:52 AM 30.0 °F 26.5 °F 28.0 °F 92% 30.39 in - North 3.5 mph - N/A   Unknown
8:52 AM 30.0 °F - 28.0 °F 92% 30.40 in - Calm Calm - N/A   Unknown
9:52 AM 34.0 °F - 28.9 °F 82% 30.39 in - Calm Calm - N/A   Unknown
10:52 AM 39.9 °F - 28.0 °F 63% 30.37 in - Calm Calm - N/A   Unknown
11:52 AM 42.1 °F 40.2 °F 25.0 °F 51% 30.34 in - NNW 3.5 mph - N/A   Unknown
12:52 PM 46.9 °F - 27.0 °F 46% 30.30 in - NNW 4.6 mph - N/A   Unknown
1:52 PM 51.1 °F - 19.0 °F 28% 30.26 in - South 4.6 mph - N/A   Unknown
2:52 PM 51.1 °F - 16.0 °F 25% 30.24 in - Calm Calm - N/A   Unknown
3:52 PM 52.0 °F - 17.1 °F 25% 30.22 in - NW 3.5 mph - N/A   Unknown
4:52 PM 52.0 °F - 19.9 °F 28% 30.22 in - Calm Calm - N/A   Unknown
5:52 PM 46.0 °F 44.8 °F 26.1 °F 46% 30.23 in - NW 3.5 mph - N/A   Unknown
6:52 PM 43.0 °F - 33.1 °F 68% 30.23 in - Calm Calm - N/A   Unknown
7:52 PM 39.0 °F 36.8 °F 32.0 °F 76% 30.25 in - Variable 3.5 mph - N/A   Unknown
8:52 PM 36.0 °F - 30.0 °F 79% 30.28 in - Calm Calm - N/A   Unknown
9:52 PM 34.0 °F - 28.9 °F 82% 30.30 in - Calm Calm - N/A   Unknown
10:52 PM 32.0 °F - 27.0 °F 82% 30.32 in - Calm Calm - N/A   Unknown
11:52 PM 30.9 °F 27.5 °F 27.0 °F 85% 30.34 in - NNW 3.5 mph - N/A   Unknown